This is the latest recevied weather packets stored in our database for station/object KE8CZD. If no packets are shown the sender has not sent any weather packets the latest 1 day(s).
| Time | Temp. | Humidity | Pressure | Rain* | Wind** | Luminosity | Snow |
|---|---|---|---|---|---|---|---|
| 1778020604 | 12.22° C | 42% | 1004.2 hPa | 0 mm | 0 m/s | - | - |
| 1778020244 | 12.22° C | 43% | 0 hPa | 0 mm | 0 m/s | - | - |
| 1778019885 | 12.22° C | 41% | 1004.2 hPa | 0 mm | 0 m/s | - | - |
| 1778019524 | 12.22° C | 41% | 1004 hPa | 0 mm | 0 m/s | - | - |
| 1778019164 | 12.22° C | 42% | 1004.1 hPa | 0 mm | 0.45 m/s, 275° | - | - |
| 1778018804 | 12.22° C | 44% | 1004 hPa | 0 mm | 0 m/s | - | - |
| 1778018445 | 12.22° C | 46% | 1004 hPa | 0 mm | 0 m/s | - | - |
| 1778018084 | 12.22° C | 49% | 1004.2 hPa | 0 mm | 0.45 m/s, 307° | - | - |
| 1778017724 | 12.78° C | 51% | 1004.1 hPa | 0 mm | 0 m/s | - | - |
| 1778017364 | 12.78° C | 52% | 1004 hPa | 0 mm | 0 m/s | - | - |
| 1778017005 | 12.78° C | 53% | 1004 hPa | 0 mm | 0.45 m/s, 282° | - | - |
| 1778016645 | 12.78° C | 53% | 1003.9 hPa | 0 mm | 0 m/s | - | - |
| 1778016285 | 12.78° C | 57% | 1003.9 hPa | 0 mm | 0 m/s | - | - |
| 1778015925 | 12.78° C | 60% | 1004 hPa | 0 mm | 0.45 m/s, 274° | - | - |
| 1778015564 | 12.22° C | 64% | 1004.1 hPa | 0 mm | 0 m/s | - | - |
| 1778015205 | 12.22° C | 66% | 1004.1 hPa | 0 mm | 0 m/s | - | - |
| 1778014844 | 12.22° C | 67% | 1004.1 hPa | 0 mm | 0 m/s | - | - |
| 1778014484 | 12.22° C | 67% | 1004.2 hPa | 0 mm | 0 m/s | - | - |
| 1778014124 | 12.22° C | 67% | 1004.2 hPa | 0 mm | 0 m/s | - | - |
| 1778013764 | 12.22° C | 67% | 1004.2 hPa | 0 mm | 0 m/s | - | - |
| 1778013404 | 12.22° C | 68% | 1004.2 hPa | 0 mm | 0 m/s | - | - |
| 1778013044 | 12.22° C | 68% | 1004.1 hPa | 0 mm | 0 m/s | - | - |
| 1778012685 | 12.22° C | 69% | 1004.1 hPa | 0 mm | 0 m/s | - | - |
| 1778012324 | 12.22° C | 68% | 1004.1 hPa | 0 mm | 0 m/s | - | - |
| 1778011964 | 12.22° C | 68% | 1004 hPa | 0 mm | 0.45 m/s, 182° | - | - |
* Rain latest hour (hover to see other rain measurements)
** Current wind speed in m/s (hover to see current wind gust speed)